Weather History for TIST - October, 2011

Change the Weather History Date:

Thursday, October 27, 2011

  Actual Average Record
Temperature  
Mean Temperature 84 °F 82 °F  
Max Temperature 88 °F 88 °F 94 °F (1992)
Min Temperature 79 °F 76 °F 66 °F (2007)
Degree Days  
Heating Degree Days 0 0  
Month to date heating degree days 0 0  
Since 1 July heating degree days 0 0  
Cooling Degree Days 19 17  
Month to date cooling degree days 486 481  
Year to date cooling degree days 4711 5040  
Growing Degree Days 34 (Base 50)    
Moisture  
Dew Point 74 °F    
Average Humidity 74    
Maximum Humidity 85    
Minimum Humidity 63    
Precipitation  
Precipitation T in 0.18 in 1.45 in (1978)
Month to date precipitation 1.65 4.67  
Year to date precipitation 37.41 30.40  
Snow  
Snow 0.00 in - - ()
Month to date snowfall 0.0  
Since 1 July snowfall 0.0  
Since 1 September snowfall 0.0  
Snow Depth 0.00 in    
Sea Level Pressure  
Sea Level Pressure 29.88 in    
Wind  
Wind Speed 10 mph (ENE)    
Max Wind Speed 20 mph    
Max Gust Speed 25 mph    
Visibility 10 miles    
Events Rain    
T = Trace of Precipitation, MM = Missing Value Source: NWS Daily Summary

Daily Weather History Graph

Daily Weather History Graph

Search for Another Location

Airport or City:

Trip Planner

Search our weather history database for the weather conditions in past years. The results will help you decide how hot, cold, wet, or windy it might be!

Date:

Astronomy

Oct. 27, 2011 Rise Set
Actual Time 6:17 AM AST 5:49 PM AST
Civil Twilight 5:55 AM AST 6:12 PM AST
Nautical Twilight 5:29 AM AST 6:37 PM AST
Astronomical Twilight 5:03 AM AST 7:03 PM AST
Moon 6:59 AM AST (10/27) 6:34 PM AST (10/27)
Length of Visible Light 12h 17m
Length of Day
11h 32m
New Moon, 1% of the Moon is Illuminated
Oct 27
New Moon
Nov 2
First Quarter
Nov 10
Full
Nov 18
Last Quarter
Nov 25
New

Hourly Weather History & Observations

Time (AST) Temp. Heat Index Dew Point Humidity Pressure Visibility Wind Dir Wind Speed Gust Speed Precip Events Conditions
12:53 AM 80.1 °F 84.5 °F 73.9 °F 81% 29.88 in 10.0 mi ENE 4.6 mph - N/A   Clear
1:53 AM 79.0 °F - 73.9 °F 84% 29.86 in 10.0 mi ENE 10.4 mph - N/A   Clear
2:53 AM 80.1 °F 84.5 °F 73.9 °F 81% 29.85 in 10.0 mi NE 5.8 mph - N/A   Clear
3:53 AM 80.1 °F 84.5 °F 73.9 °F 81% 29.84 in 10.0 mi NE 9.2 mph - N/A   Clear
4:53 AM 80.1 °F 84.5 °F 73.9 °F 81% 29.84 in 10.0 mi ENE 8.1 mph - N/A   Clear
5:53 AM 80.1 °F 84.2 °F 73.0 °F 79% 29.86 in 10.0 mi NE 9.2 mph - N/A   Scattered Clouds
6:53 AM 81.0 °F 86.2 °F 73.9 °F 79% 29.88 in 10.0 mi NE 8.1 mph - N/A   Partly Cloudy
7:53 AM 82.9 °F 90.2 °F 75.0 °F 77% 29.90 in 10.0 mi ENE 12.7 mph - 0.00 in   Scattered Clouds
8:53 AM 84.0 °F 91.2 °F 73.9 °F 72% 29.92 in 10.0 mi NE 15.0 mph - N/A   Scattered Clouds
9:53 AM 86.0 °F 93.8 °F 73.9 °F 67% 29.93 in 10.0 mi ENE 13.8 mph - N/A   Scattered Clouds
10:53 AM 86.0 °F 93.8 °F 73.9 °F 67% 29.92 in 10.0 mi ENE 6.9 mph 18.4 mph 0.00 in Rain Light Rain
11:53 AM 88.0 °F 96.5 °F 73.9 °F 63% 29.91 in 10.0 mi East 13.8 mph 18.4 mph 0.00 in   Overcast
12:53 PM 87.1 °F 95.4 °F 73.9 °F 65% 29.88 in 10.0 mi East 16.1 mph - N/A   Mostly Cloudy
1:53 PM 87.1 °F 95.4 °F 73.9 °F 65% 29.85 in 10.0 mi East 15.0 mph 24.2 mph N/A   Clear
2:53 PM 86.0 °F 96.0 °F 75.9 °F 72% 29.84 in 10.0 mi East 16.1 mph 21.9 mph N/A   Clear
3:53 PM 84.0 °F 91.2 °F 73.9 °F 72% 29.83 in 10.0 mi East 12.7 mph - N/A   Partly Cloudy
4:53 PM 84.0 °F 92.6 °F 75.9 °F 76% 29.85 in 9.0 mi ENE 11.5 mph 20.7 mph 0.00 in Rain Light Rain
5:11 PM 82.4 °F 88.2 °F 73.4 °F 74% 29.85 in 10.0 mi NE 11.5 mph - 0.00 in   Overcast
5:53 PM 82.0 °F 88.6 °F 75.0 °F 79% 29.86 in 10.0 mi ENE 9.2 mph - 0.00 in   Clear
6:53 PM 82.9 °F 90.2 °F 75.0 °F 77% 29.86 in 10.0 mi ENE 11.5 mph - N/A   Partly Cloudy
7:53 PM 81.0 °F 86.7 °F 75.0 °F 82% 29.89 in 10.0 mi Calm Calm - 0.00 in   Scattered Clouds
8:53 PM 80.1 °F 85.1 °F 75.0 °F 85% 29.91 in 10.0 mi NE 6.9 mph - N/A   Clear
9:53 PM 80.1 °F 85.1 °F 75.0 °F 85% 29.91 in 10.0 mi ENE 9.2 mph - N/A   Clear
10:53 PM 80.1 °F 85.1 °F 75.0 °F 85% 29.92 in 10.0 mi NE 4.6 mph - N/A   Clear
11:53 PM 80.1 °F 84.5 °F 73.9 °F 81% 29.92 in 10.0 mi ENE 6.9 mph - N/A   Clear